www.pogodaiklimat.ru

Погода и климат >> Архив погоды >> Мадагаскар >> Манандзари


ПОГОДА в Манандзари

  • Прогноз погоды в Манандзари
  • Монитор погоды в Манандзари

АРХИВ ПОГОДЫ в Манандзари

Время (UTC), дата Ветер
(напр.,м/с)
 
Видим.   Явления Облачность Т
(С)
Тd
(С)
f
(%)
Тe
(С)
Тes
(С)
Комфортность P
(гПа)
Po
(гПа)
Тmin
(С)
Tmax
(С)
R
(мм)
R24
(мм)
S
(см)
00 13.06 0 20 км осадки на расстоянии 8/8 500 м
[Cu Sc]
1023.2 1022.5 1
03 13.06 З 2 20 км {дождь} 9/8 500 м
[Cu Sc]
1022.8 1022.1 1
06 13.06 З 3 25 км 6/6 500 м
[Cu Sc]
1023.4 1022.7 1
09 13.06 Ю 3 30 км 4/4 600 м
[Cu Sc]
1022.8 1022.1
12 13.06 ЮВ 2 30 км 4/4 600 м
[Cu Sc]
1021.5 1020.8
15 13.06 СВ 1 25 км 3/3 500 м
[Cu Sc]
1020.8 1020.1
00 14.06 0 25 км 3/3 500 м
[Cu Sc]
1019.9 1019.2
03 14.06 З 3 25 км 3/3 500 м
[Cu Sc]
1019.2 1018.5
06 14.06 ЮЗ 4 25 км 8/8 500 м
[Cu Sc]
-4 -3 1020.3 1019.6
09 14.06 З 4 25 км осадки на расстоянии 9/9 500 м
[Cu Sc]
1019.9 1019.2
12 14.06 ЮЗ 5 25 км осадки на расстоянии 9/9 500 м
[Cu Sc]
1018.0 1017.3
15 14.06 ЮЗ 4 20 км осадки на расстоянии 10/10 500 м
[Cu Sc]
1018.2 1017.5 5
00 15.06 0 20 км в посл. час дождь 10/10 500 м
[Cu Sc]
1019.8 1019.1 15
03 15.06 З 3 20 км в посл. час дождь 10/10 500 м
[Cu Sc]
1020.0 1019.3 19
06 15.06 ЮЗ 4 20 км осадки на расстоянии 9/9 500 м
[Cu Sc]
1021.3 1020.6 24
09 15.06 З 4 25 км 6/6 500 м
[Cu Sc]
1021.0 1020.3
12 15.06 Ю 4 25 км 8/8 500 м
[Cu Sc]
1019.8 1019.1
15 15.06 ЮЗ 2 25 км 8/8 500 м
[Cu Sc]
1020.0 1019.3
00 16.06 0 20 км осадки на расстоянии 9/9 500 м
[Cu Sc]
1021.2 1020.5 7
03 16.06 З 3 20 км осадки на расстоянии 9/9 500 м
[Cu Sc]
1020.9 1020.2 7
06 16.06 ЮЗ 3 25 км осадки на расстоянии 9/9 500 м
[Cu Sc]
-3 -3 1023.3 1022.6 7
09 16.06 ЮЗ 4 25 км осадки на расстоянии 9/9 500 м
[Cu Sc]
1023.2 1022.5 0.4
12 16.06 ЮЗ 3 25 км 8/8 500 м
[Cu Sc]
1021.7 1021.0
15 16.06 ЮЗ 3 20 км осадки на расстоянии 9/9 500 м
[Cu Sc]
1022.1 1021.4
00 17.06 0 20 км 10/10 500 м
[Cu Sc]
1023.0 1022.3 20
03 17.06 З 3 20 км осадки на расстоянии 9/9 500 м
[Cu Sc]
1023.6 1022.9 24
06 17.06 Ю 3 25 км осадки на расстоянии 8/8 500 м
[Cu Sc]
1024.8 1024.1 25
09 17.06 Ю 5 25 км 8/8 500 м
[Cu Sc]
1024.3 1023.6
12 17.06 ЮВ 4 25 км 8/8 500 м
[Cu Sc]
1022.7 1022.0
15 17.06 С 3 25 км 8/8 500 м
[Cu Sc]
1023.3 1022.6
00 18.06 0 20 км 9/9 500 м
[Cu Sc]
1022.8 1022.1
03 18.06 З 2 25 км {дождь} 8/8 500 м
[Cu Sc]
1023.2 1022.5 0.5
06 18.06 З 3 30 км {дождь} 1/1 600 м
[Cu Sc]
-3 +1 1023.8 1023.1 0.5
09 18.06 В 2 35 км 1/1 600 м
[Cu hum]
1023.5 1022.8
12 18.06 С 3 35 км 1/1 600 м
[Cu Sc]
1021.7 1021.0
15 18.06 С 2 25 км 1/1 500 м
[Cu Sc]
1022.1 1021.4
00 19.06 0 25 км 6/6 500 м
[Cu Sc]
1022.8 1022.1
03 19.06 З 3 25 км 6/6 500 м
[Cu Sc]
1021.7 1021.0
06 19.06 З 2 25 км 8/8 500 м
[Cu Sc]
1022.2 1021.5
09 19.06 СВ 5 25 км 6/6 500 м
[Cu Sc]
1021.9 1021.2
12 19.06 СВ 5 35 км 6/6 600 м
[Cu Sc]
1021.5 1020.8
15 19.06 СВ 6 25 км 8/6 500 м
[Cu Sc]
1020.5 1019.8

 

Местоположение метеостанции Манандзари (Мадагаскар): широта -21.60 долгота 48.37 высота над уровнем моря 5 м.

В архиве по умолчанию представлена погода в Манандзари за последнюю неделю. Архивные данные за месяц целиком и за предыдущие месяцы, начиная с января 2011 года, Вы можете получить, выбрав интересующий диапазон дат из раскрывающегося списка и нажав кнопку "Ввод!".


*Определитесь, кто Вы:
робот инопланетянин человек

Внимание! Время в таблицах - всемирное. Для получения местного времени необходимо прибавить поправку, которая равна 3 ч.

Смотрите также архив погоды в соседних городах и на ближайших метеорологических станциях:

Погода в Фианаранцуа (Мадагаскар) (132 км)
Погода в Фарафангане (Мадагаскар) (145 км)
Погода в Мааноро (Мадагаскар) (202 км)
Погода в Анцирабе (Мадагаскар) (241 км)
Погода в Антананариву (Мадагаскар) (317 км)
Погода в Антананариву аэропорт (Мадагаскар) (325 км)
Погода в Туамасине (Мадагаскар) (403 км)
Погода в Толанаро (Мадагаскар) (408 км)
Погода в Амбоайтзилаозане (Мадагаскар) (442 км)
Погода в Мурундаве (Мадагаскар) (446 км)

Пояснения к столбцам:

Ветер - указаны скорость ветра в м/с - средняя за 10 мин, порывы в срок и между сроками (в фигурных скобках) и направление, откуда дует ветер: С - северный, СВ - северо-восточный, В - восточный, ЮВ - юго-восточный, Ю - южный, ЮЗ - юго-западный, З - западный, СЗ - северо-западный.
Видимость - горизонтальная дальность видимости в метрах или километрах. При видимости от 1 до 10 км при отсутствии осадков обычно наблюдается дымка, при ухудшении видимости до 1 км и менее - туман. В сухую погоду видимость может ухудшаться дымом, пылью или мглою.
Явления - указаны атмосферные явления, наблюдавшиеся в срок или в последний час перед сроком; фигурными скобками обозначены явления, наблюдавшиеся между сроками (за 1-3 часа до срока); квадратными скобками обозначены град или гололедные отложения с указанием их диаметра в мм.
Облачность - указаны через наклонную черту общая и нижняя облачность в баллах и высота нижней границы облаков в метрах; квадратными скобками обозначены формы облаков: Ci - перистые, Cs - перисто-слоистые, Cc - перисто-кучевые, Ac - высококучевые, As - высокослоистые, Sc - слоисто-кучевые, Ns - слоисто-дождевые, Cu - кучевые, Cb - кучево-дождевые. Подробнее классификацию облаков см. в Атласе облаков (PDF).
T - Температура воздуха - температура, измеренная на высоте 2 м над землей.
Td - Температура точки росы - температура, при понижении до которой содержащийся в воздухе водяной пар достигнет насыщения.
f - Относительная влажность воздуха - влажноcть воздуха, измеренная на высоте 2 м над землей.
Te - Эффективная температура - температура, которую ощущает одетый по сезону человек в тени. Характеристика душности погоды. При расчете учитывается влияние влажности воздуха и скорости ветра на теплоощущения человека.
Tes - Эффективная температура на солнце - температура, которую ощущает человек, с поправкой на солнечный нагрев. Характеристика знойности погоды. Зависит от высоты солнца над горизонтом, облачности и скорости ветра. Ночью, в пасмурную погоду, а также при ветре 12 м/с и более поправка равна нулю.
P - Атмосферное давление - приведенное к уровню моря атмосферное давление.
Po - Атмосферное давление - измеренное на уровне метеостанции атмосферное давление.
Tmin - Минимальная температура - минимум температуры воздуха на высоте 2 м над землей.
Tmax - Максимальная температура - максимум температуры воздуха на высоте 2 м над землей.
R - Количество осадков - Количество выпавших осадков за период времени, мм. При наведении курсора мыши на число - период времени, за который выпало указанное количество осадков.
R24 - Количество осадков - Количество выпавших осадков за 24 часа, мм.
S - Снежный покров - Высота снежного покрова, см. При наведении курсора мыши на число - состояние снежного покрова и степень покрытия местности в баллах.